Regional Weather Roundup
Issued by NWS

Home | Current Version | Previous Version | Text Only | Print | Product List | Glossary On
Versions: 1 2 3 4 5 6 7 8 9 10 11 12 13 14 15 16 17 18 19 20 21 22 23 24 25 26 27 28 29 30 31 32 33 34 35 36 37 38 39 40 41 42 43 44 45 46 47 48 49 50
000
ASUS43 KFSD 161510
RWRSD

WEATHER ROUNDUP FOR SOUTH DAKOTA
NATIONAL WEATHER SERVICE SIOUX FALLS SD
900 AM CST TUE JAN 16 2018

NOTE: "FAIR" INDICATES FEW OR NO CLOUDS BELOW 12,000 FEET WITH NO
SIGNIFICANT WEATHER AND/OR OBSTRUCTIONS TO VISIBILITY.


SDZ001>005-009-010-012>017-161600-
NORTHWEST AND NORTH CENTRAL SOUTH DAKOTA

CITY           SKY/WX    TMP DP  RH WIND       PRES   REMARKS
BUFFALO          N/A     -9 -14  78 S7        30.36F WCI -24
FAITH            N/A    -11 -16  78 S16       30.55F WCI -34
MOBRIDGE       PTCLDY   -13 -19  75 S6        30.64F WCI -27
$$

SDZ012>016-024>037-041>051-057-063-072>074-161600-
SOUTHWEST AND SOUTH CENTRAL SOUTH DAKOTA

CITY           SKY/WX    TMP DP  RH WIND       PRES   REMARKS
RAPID CTY ARPT CLEAR     -9 -13  83 E3        30.50F
PIERRE         CLEAR    -10 -14  82 SW6       30.71F WCI -23
CUSTER         CLEAR      2 -19  37 NW3       30.34F
ELLSWORTH AFB  PTCLDY    -8 -14  76 SW7       30.47F WCI -23
PHILIP         PTCLDY   -12 -16  82 CALM      30.66F
PINE RIDGE     CLEAR    -16 -21  78 CALM      30.56F
SPEARFISH        N/A      5  -6  61 S8        30.41F WCI  -8
WINNER         FAIR      -5 -14  65 W6        30.71F WCI -18
$$

SDZ004>011-016>023-039-040-161600-
NORTHEAST SOUTH DAKOTA

CITY           SKY/WX    TMP DP  RH WIND       PRES   REMARKS
ABERDEEN       PTCLDY   -13 -20  71 SW6       30.75F WCI -27
WATERTOWN      CLOUDY   -11 -14  86 NW7       30.67F WCI -26
BROOKINGS      CLOUDY    -9 -13  83 NW12      30.69S WCI -28
SISSETON         N/A     -8 -16  67 NW10      30.74S WCI -26
$$

SDZ017-020-022-023-036>040-048>070-161600-
SOUTHEAST SOUTH DAKOTA

CITY           SKY/WX    TMP DP  RH WIND       PRES   REMARKS
SIOUX FALLS    CLOUDY    -7 -12  79 NW10      30.72S WCI -25
HURON          CLEAR     -9 -15  75 W6        30.78S WCI -22
CHAMBERLAIN    CLEAR     -7 -12  77 SW5       30.75F WCI -18
MITCHELL       CLOUDY    -7 -13  75 NW9       30.80S WCI -24
YANKTON        CLOUDY    -5 -11  75 NW16      30.77F WCI -27
$$

ABBREVIATIONS USED IN REMARKS
   TC - TEMPERATURE IN CELSIUS
  WCI - WIND CHILL INDEX
   HX - HEAT INDEX
  VSB - VISIBILITY





USA.gov is the U.S. government's official web portal to all federal, state and local government web resources and services.